Regional Weather Roundup
Issued by NWS

Home | Current Version | Previous Version | Graphics & Text | Print | Product List | Glossary On
Versions: 1 2 3 4 5 6 7 8 9 10 11 12 13 14 15 16 17 18 19 20 21 22 23 24 25 26 27 28 29 30 31 32 33 34 35 36 37 38 39 40 41 42 43 44 45 46 47 48 49 50
855
ASUS45 KTFX 171410
RWRMT
MONTANA REGIONAL WEATHER ROUNDUP
NATIONAL WEATHER SERVICE GREAT FALLS MT
700 AM MST SUN DEC 17 2017

NOTE: "FAIR" INDICATES FEW OR NO CLOUDS BELOW 12000 FEET WITH NO
SIGNIFICANT WEATHER AND/OR OBSTRUCTIONS TO VISIBILITY.

MTZ001>007-043-171500-
WEST OF THE DIVIDE

CITY           SKY/WX    TMP DP  RH WIND       PRES   REMARKS
KALISPELL      CLOUDY    27  23  85 SE13      30.10F WCI  16
MISSOULA       CLOUDY    18  16  92 CALM      30.18S
BUTTE          CLOUDY     2  -2  83 CALM      30.03S
MULLAN PASS    LGT SNOW  21  17  84 SW8       30.00S FOG     WCI  11
ANACONDA         N/A     21   9  58 S7        30.04S WCI  13
DEER LODGE       N/A     12  10  92 CALM      30.08S
EUREKA           N/A     30  19  64 MISG      30.07S
HAMILTON         N/A     21  12  68 S14       30.13F WCI   8
LIBBY            N/A     23  21  93 CALM      30.09S
PLAINS           N/A     22  17  81 CALM      30.15F
RONAN            N/A     23  19  86 S8        30.12F WCI  14
$$

MTZ008-052>055-171500-
SOUTHWEST MONTANA

CITY           SKY/WX    TMP DP  RH WIND       PRES   REMARKS
BOZEMAN        FAIR       1  -2  87 S7        30.05S WCI -12
DILLON         FAIR      13   5  70 SW9       30.04S WCI   1
W YELLOWSTONE  FLURRIES   3   1  92 CALM      30.06R
ENNIS          CLOUDY    14   7  73 S16       30.07F WCI  -2
THREE FORKS      N/A     -5 -11  75 CALM      30.03S VSB 0
TWIN BRIDGES     N/A     12   1  61 CALM      30.04F
$$

MTZ009-010-012-014-046-048-049-054-171500-
EAST SLOPES AND CENTRAL MONTANA

CITY           SKY/WX    TMP DP  RH WIND       PRES   REMARKS
CUT BANK       FAIR      30  19  63 W29G36    29.72S WCI  15
GREAT FALLS    FAIR      28  13  53 SW26G38   29.81S WCI  13
MALMSTROM AFB  FAIR      26  17  70 SW18      29.82F WCI  12
HELENA         CLOUDY    29  12  49 W14       30.02R WCI  18
BOWMANS CRNR   FAIR      24  12  62 SW29G36   29.82R WCI   6
CHOTEAU          N/A     36  16  44 W25G31    29.76F WCI  23
FAIRFIELD      MOCLDY    31  14  48 SW20      29.76S WCI  19
POWER          FAIR      26  15  61 SW24      29.77S WCI  11
RAYNESFORD     FAIR      27  14  57 SW21      29.80F WCI  13
ULM            MOCLDY    29  16  56 SW24G35   29.85R WCI  15
$$

MTZ011-013-016-021-045-047-050-051-171500-
NORTH CENTRAL MONTANA

CITY           SKY/WX    TMP DP  RH WIND       PRES   REMARKS
HAVRE          FAIR      26  18  71 SW20G29   29.77F WCI  12
LEWISTOWN      FAIR      20  10  65 SW12      29.80F WCI   8
N BAR RANCH    FAIR      16   3  57 NW3       29.82F
CHINOOK          N/A     28  18  64 CALM      29.79S
DENTON         MOCLDY    15   9  76 MISG      29.76F
GEYSER         MOCLDY    26  15  62 W10G22    29.77F WCI  16
GRASS RANGE    FAIR      22  11  62 SW13      29.79S WCI  10
STANFORD       MOCLDY    15  10  79 S6        29.77F WCI   6
WINIFRED       FAIR      23  11  60 SW6       29.78F WCI  15
$$

MTZ017>020-022>027-061-062-171500-
NORTHEAST MONTANA

CITY           SKY/WX    TMP DP  RH WIND       PRES   REMARKS
GLASGOW        FAIR      18  16  92 SE10      29.85F WCI   6
GLENDIVE       FAIR      19  16  88 S5        29.94F
JORDAN           N/A     23  20  88 SW18      29.86F WCI   9
SIDNEY         FAIR      18  15  88 SW9       29.95F WCI   7
WOLF POINT     FAIR       9   4  80 CALM      29.91F
MALTA          CLEAR     14  12  92 CALM      29.82F
PLENTYWOOD       N/A     14  12  92 CALM      29.87F
POPLAR           N/A     16  14  93 SE3       29.91F
$$

MTZ028>42-056>058-171500-
SOUTHCENTRAL AND SOUTHEAST MONTANA

CITY           SKY/WX    TMP DP  RH WIND       PRES   REMARKS
BAKER          FAIR      18  16  92 CALM      29.96F
BILLINGS       FAIR      21  20  96 SW10      29.90S WCI  10
LIVINGSTON     FAIR      23  14  68 W30G40    29.93S WCI   5
MILES CITY     FAIR      21  21 100 S8        29.93F WCI  11
BIG TIMBER     CLEAR     23  16  74 W39       29.85F HAZE    WCI   3
FORSYTH          N/A     21  19  93 CALM      29.92F
HARLOWTON      FAIR      21  14  75 NW31G38   29.83F WCI   2
LAUREL           N/A     21  18  86 W13       29.91F WCI   9
$$

REGIONAL REPORTS...DAKOTAS

CITY           SKY/WX    TMP DP  RH WIND       PRES   REMARKS
WILLISTON      FAIR      15  13  91 S3        29.95S
MINOT          FAIR      21  16  81 SW12      29.94F WCI   9
DICKINSON      FAIR      15  12  88 S8        29.94F WCI   4
BEACH          FAIR      16  14  93 S8        29.97F WCI   5
CROSBY         FAIR      18  16  93 S13       29.91S WCI   4
TIOGA          FAIR      18  18 100 SW8       29.93F WCI   7
BISMARCK       FAIR      17  16  95 CALM      30.03S
GRAND FORKS    FAIR      10   8  92 S6        30.00S WCI   0
FARGO          FAIR      24  22  91 S9        30.05R WCI  14
BUFFALO SD       N/A     27  21  78 CALM      29.90F
RAPID CITY     CLOUDY    29  26  89 S5        30.01S
$$

REGIONAL REPORTS...WYOMING/IDAHO/WASHINGTON

CITY           SKY/WX    TMP DP  RH WIND       PRES   REMARKS
GILLETTE       MOCLDY    26  23  88 S16       29.92F WCI  14
SHERIDAN       FOG       21  20  96 SW3       29.92F VSB 1/2
BUFFALO WY     CLOUDY    20  13  74 SW3       29.89F
CODY           FLURRIES  28  13  53 W15G26    29.89F WCI  16
YELLOWSTONE LA   N/A     -4  -8  83 CALM      30.04R
IDAHO FALLS    CLOUDY    22  22 100 SW3       30.18R FOG
SALMON         CLOUDY     9   6  88 CALM      30.24F
BOISE          FAIR      20  16  84 SE6       30.24F WCI  12
SPOKANE        LGT SNOW  29  28  96 S12       30.13S FOG     WCI  19
$$

REGIONAL REPORTS...ALBERTA

CITY           SKY/WX    TMP DP  RH WIND       PRES   REMARKS
EDMONTON       CLEAR     30  16  55 SW8       29.48S WCI  23
CALGARY        MOCLDY    39  12  33 W17G29    29.59R WCI  30
LETHBRIDGE     MOCLDY    36  19  51 W36G44    29.67S WCI  21
MEDICINE HAT   MOCLDY    27  19  74 SW14      29.66F WCI  15
$$

REGIONAL REPORTS...SASKATCHEWAN

CITY           SKY/WX    TMP DP  RH WIND       PRES   REMARKS
SWIFT CURRENT  CLOUDY    23  16  74 S16G22    29.66F WCI  10
REGINA         MOCLDY    19  16  86 S10       29.78F WCI   8
SASKATOON      PTCLDY    21  18  86 S10       29.66F WCI  10
$$




USA.gov is the U.S. government's official web portal to all federal, state and local government web resources and services.